DELTA 1 DEB, 10844

Orbit data source: Space-Track

DELTA 1 DEB, 10844 is space debris in SSO originally from a launch on Thu, 29 Jul 1976 UTC launched from the Air Force Western Test Range (AFWTR). Debris objects in space refer to the collection of defunct objects orbiting the Earth. Examples of debris include non-operational satellites, rocket bodies, and fragments generated from explosions, collisions, or faulty payload assembly.

Loading next visibility...
Identifier
10844, 1976-077CQ
Orbit
SSO
Country
Flag of USUS
Related business
Manufacturer
Unknown
Mission
Spacecraft
Bus & Motor
Unknown
Mass
Unknown
Launch date (UTC)
1976-07-29 (50 years ago)
Launch vehicle
Unknown
Launch site
Air Force Western Test Range (AFWTR)
Object type
Payload
Rocket body
Debris
Shape & HBR
Unknown shape, 0.1 m
Radar Cross Section
Small (<0.1 m²)

Expand to show TLE details & history
Last TLE update: 1 day ago

TLE from 1 day ago
0 DELTA 1 DEB
1 10844U 76077CQ  26067.01976067  .00005940  00000-0  57562-2 0  9996
2 10844 101.2121 100.4103 0120391 127.4307 252.6563 13.76987276397022
Epoch: 2026-03-08T00:28Z
TLE epoch observation values (Epoch: 2026-03-08T00:28:27.321Z)
Latitude
18.4012°
Longitude
-76.19813°
Altitude
1,004.19 km
Speed
7.337 km/s
True Right ascension
06h 26m 35s
True Declination
18° 18' 07"
Sunlit
Object was in daylight at epoch
Visualization orbit readout
Latitude
Unknown
Longitude
Unknown
Altitude
Unknown
Speed
Unknown
Apparent Right ascension
Unknown
Apparent Declination
Unknown
Sunlit
N/A
Visualization observer readout
Local Sidereal Time
15:46:13
Azimuth
Unknown
Elevation
Unknown
Doppler factor
Unknown
Orbital elements
Apogee altitude
1,060.43 km
Perigee altitude
883.453 km
Semi-major axis
7,350.078 km
Eccentricity
0.01204
Inclination
101.2121°
RAAN
100.4103°
Arg. of periapsis
127.4307°
True anomaly
251.34544°
Mean anomaly
252.6563°
Eccentric anomaly
252.00027°
Mean motion
3.44433 °/min
Orbital period
104.52 mins
BSTAR
0.0057562
Loading maneuver chart data...
Computing Atmospheric mass density...
Loading historical data...
Loading historical data...
Loading historical data...
Loading historical data...
Loading historical data...
Loading historical data...
Loading historical data...

Documentation

Showing up to 5 results
|